Location: Maiden
(35.5760°N, 81.2120°W)
Time: 01:15:42
(UTC-04:00)

A-11 Canister half - Pass Details

Date: 10 August 2020
Orbit: 1527 x 1682 km, 47.3° (Epoch: 25 September)

Event Time Altitude Azimuth Distance (km) Brightness Sun altitude
Rises 16:51:47 0° 293° (WNW) 4,936 12.3 40.8°
Reaches altitude 10° 16:55:13 10° 299° (WNW) 3,945 11.9 40.1°
Maximum altitude 17:04:50 45° 11° (N) 2,147 10.1 38.1°
Drops below altitude 10° 17:14:15 10° 82° (E) 3,864 10.7 36.2°
Sets 17:17:34 0° 89° (E) 4,828 11.1 35.6°
